Regional Weather Roundup
Issued by NWS

Home | Current Version | Previous Version | Graphics & Text | Print | Product List | Glossary On
Versions: 1 2 3 4 5 6 7 8 9 10 11 12 13 14 15 16 17 18 19 20 21 22 23 24 25 26 27 28 29 30 31 32 33 34 35 36 37 38 39 40 41 42 43 44 45 46 47 48 49 50
000
ASUS43 KOAX 210202
RWRNE

WEATHER ROUNDUP FOR NEBRASKA
NATIONAL WEATHER SERVICE OMAHA NE
900 PM CDT MON OCT 20 2014

NOTES: SATELLITE DATA IS BEING USED TO AUGMENT CLOUD COVER ABOVE
       12000 FEET.
       "FAIR" INDICATES FEW OR NO CLOUDS BELOW 12,000 FEET WITH NO
       SIGNIFICANT WEATHER AND/OR OBSTRUCTIONS TO VISIBILITY.

  * THESE STATIONS DO NOT REPORT WEATHER SUCH AS RAIN...SNOW OR FOG.

NEZ001>004-019>022-054>056-210300-
NEBRASKA PANHANDLE

CITY           SKY/WX    TMP DP  RH WIND       PRES   REMARKS
SCOTTSBLUFF    CLEAR     56  39  53 E9        29.99R
ALLIANCE       CLEAR     58  40  51 S14       30.00S
CHADRON        CLEAR     63  40  42 S14       29.93R
KIMBALL        CLEAR     57  34  42 S10       30.05R
SIDNEY         CLEAR     60  38  43 S14       30.06R
$$

NEZ057>060-069>072-079>082-210300-
SOUTHWEST NEBRASKA

CITY           SKY/WX    TMP DP  RH WIND       PRES   REMARKS
NORTH PLATTE   CLEAR     52  39  61 SE6       30.05S
IMPERIAL       CLEAR     62  36  37 S12       30.06S
LEXINGTON      CLEAR     58  42  56 S5        30.06S
MCCOOK         CLEAR     60  40  47 S5        30.07R
OGALLALA       CLEAR     64  40  41 S10       30.04S
$$

NEZ005>010-023>029-035>040-094-210300-
NORTH CENTRAL NEBRASKA

CITY           SKY/WX    TMP DP  RH WIND       PRES   REMARKS
VALENTINE      CLEAR     63  39  41 S12       29.99S
AINSWORTH      CLEAR     57  41  55 S9        30.01F
BROKEN BOW     CLEAR     46  39  76 CALM      30.05S
O`NEILL        CLEAR     58  42  55 SE6       30.04S
ORD            CLEAR     50  40  68 CALM      30.04S
THEDFORD       CLEAR     60  40  47 S10       30.03S
$$

NEZ041-046>049-061>064-073>077-083>087-210300-
SOUTH CENTRAL NEBRASKA

CITY           SKY/WX    TMP DP  RH WIND       PRES   REMARKS
GRAND ISLAND   CLEAR     51  42  71 SE7       30.07S
AURORA         CLEAR     51  37  59 CALM      30.07S
HASTINGS       CLEAR     53  41  63 CALM      30.06S
HEBRON         CLEAR     51  41  69 CALM      30.06S
HOLDREGE       CLEAR     57  40  53 CALM      30.07S
KEARNEY *      CLEAR     55  39  54 SE3       30.07S
YORK           CLEAR     57  39  51 E3        30.07R
$$

NEZ011>018-030>034-042>045-210300-
NORTHEAST NEBRASKA

CITY           SKY/WX    TMP DP  RH WIND       PRES   REMARKS
NORFOLK        CLEAR     49  36  61 CALM      30.05R
ALBION         CLEAR     49  38  66 CALM      30.06S
BLAIR          CLEAR     60  37  42 NE5       30.05S
COLUMBUS *     CLEAR     52  36  54 CALM      30.07S
FREMONT        CLEAR     53  42  66 CALM      30.06R
TEKAMAH        CLEAR     49  40  71 W3        30.04S
WAYNE          CLEAR     43  36  76 CALM      30.06R
$$

NEZ050>053-065>068-078-088>093-210300-
SOUTHEAST NEBRASKA

CITY           SKY/WX    TMP DP  RH WIND       PRES   REMARKS
LINCOLN        CLEAR     52  38  58 CALM      30.07S
OMAHA EPPLEY   CLEAR     55  44  66 CALM      30.05S
BEATRICE       CLEAR     53  39  58 CALM      30.06R
FALLS CITY     CLEAR     57  36  45 CALM      30.05S
NEBRASKA CITY  CLEAR     62  30  30 CALM      30.06S
PLATTSMOUTH    CLEAR     59  35  40 S5        30.05S
$$

NEZ044-045-051>053-067-210300-
OMAHA AREA

CITY           SKY/WX    TMP DP  RH WIND       PRES   REMARKS
OMAHA EPPLEY   CLEAR     55  44  66 CALM      30.05S
BLAIR          CLEAR     60  37  42 NE5       30.05S
FREMONT        CLEAR     53  42  66 CALM      30.06R
MILLARD        CLEAR     51  45  78 CALM      30.05S
OFFUTT AFB     CLEAR     47  46  99 CALM      30.04S
PLATTSMOUTH    CLEAR     59  35  40 S5        30.05S
WAHOO          HAZE      54  40  61 CALM      30.06R VSB 3/4
$$



USA.gov is the U.S. government's official web portal to all federal, state and local government web resources and services.